Powrót do katalogu

FENGYUN 1C DEB

AktywnySSO
NORAD 35201·DEBRIS·🇨🇳 China

Wystrzelony May 10, 1999 z Taiyuan Satellite Launch Center

Loading…

Następne Przeloty (najbliższe 24 godziny)

TLE

ŚwieżeSource: Space-Track

Epoka: Sep 14, 2026, 21:43 UTC

1 35201U 99025DPH 26257.90530179  .00000112  00000-0  85910-4 0  9993
2 35201  98.7074 263.5607 0006730 178.4359 298.2531 14.11147267909147

Śledź FENGYUN 1C DEB w czasie rzeczywistym z AllMySat

Download on the App Store